Surface/Precipitation History
02/08/2016 17:40  to  2/9/2016 17:40
Change End Date:
Date/Time
(MST)
Sf
Temp Chem Water Layer Surface Precipitation
Sfc Pvt Sub Frz Factor Pct Dpth DpthThk IcePct Cond Salin FI Type Intens Accum Rate
02/09/2016 17:31 Dry 43.7F - 32F - - - - - - 0 mhos 1 - None None - -
02/09/2016 17:22 Dry 45.5F - 32F - - - - - - 0 mhos 1 - None None - -
02/09/2016 17:16 Dry 46.8F - 32F - - - - - - 0 mhos 1 - None None - -
02/09/2016 17:12 Dry 47.5F - 32F - - - - - - 0 mhos 1 - None None - -
02/09/2016 17:02 Dry 49.1F - 31F - - - - - - 0 mhos 1 - None None - -
02/09/2016 17:01 Dry 49.3F - 31F - - - - - - 0 mhos 1 - None None - -
02/09/2016 16:52 Dry 50.7F - 31F - - - - - - 0 mhos 1 - None None - -
02/09/2016 16:46 Dry 50.5F - 31F - - - - - - 0 mhos 0 - None None - -
02/09/2016 16:42 Dry 50.4F - 31F - - - - - - 0 mhos 0 - None None - -
02/09/2016 16:32 Dry 54.0F - 31F - - - - - - 0 mhos 0 - None None - -
02/09/2016 16:31 Dry 54.1F - 31F - - - - - - 0 mhos 0 - None None - -
02/09/2016 16:21 Dry 54.5F - 31F - - - - - - 0 mhos 0 - None None - -
02/09/2016 16:16 Dry 55.2F - 31F - - - - - - 0 mhos 0 - None None - -
02/09/2016 16:11 Dry 56.3F - 31F - - - - - - 0 mhos 0 - None None - -
02/09/2016 16:01 Dry 58.6F - 31F - - - - - - 0 mhos 0 - None None - -
Date/Time
(MST)
Sf
Temp Chem Water Layer Surface Precipitation
Sfc Pvt Sub Frz Factor Pct Dpth DpthThk IcePct Cond Salin FI Type Intens Accum Rate
02/09/2016 16:01 Dry 58.8F - 31F - - - - - - 0 mhos 0 - None None - -
02/09/2016 15:51 Dry 59.2F - 31F - - - - - - 0 mhos 0 - None None - -
02/09/2016 15:46 Dry 58.5F - 31F - - - - - - 0 mhos 0 - None None - -
02/09/2016 15:41 Dry 58.5F - 31F - - - - - - 0 mhos 0 - None None - -
02/09/2016 15:31 Dry 58.8F - 31F - - - - - - 0 mhos 0 - None None - -
02/09/2016 15:31 Dry 58.6F - 31F - - - - - - 0 mhos 0 - None None - -
02/09/2016 15:21 Dry 57.6F - 31F - - - - - - 0 mhos 0 - None None - -
02/09/2016 15:16 Dry 57.7F - 31F - - - - - - 0 mhos 0 - None None - -
02/09/2016 15:11 Dry 56.8F - 31F - - - - - - 0 mhos 0 - None None - -
02/09/2016 15:01 Dry 56.7F - 31F - - - - - - 0 mhos 0 - None None - -
02/09/2016 15:01 Dry 55.8F - 31F - - - - - - 0 mhos 0 - None None - -
02/09/2016 14:51 Dry 57.2F - 31F - - - - - - 0 mhos 0 - None None - -
02/09/2016 14:46 Dry 57.6F - 31F - - - - - - 0 mhos 0 - None None - -
02/09/2016 14:41 Dry 57.7F - 31F - - - - - - 0 mhos 0 - None None - -
02/09/2016 14:31 Dry 58.3F - 31F - - - - - - 0 mhos 0 - None None - -
Date/Time
(MST)
Sf
Temp Chem Water Layer Surface Precipitation
Sfc Pvt Sub Frz Factor Pct Dpth DpthThk IcePct Cond Salin FI Type Intens Accum Rate
02/09/2016 14:31 Dry 58.6F - 31F - - - - - - 0 mhos 0 - None None - -
02/09/2016 14:21 Dry 57.9F - 31F - - - - - - 0 mhos 0 - None None - -
02/09/2016 14:16 Dry 58.5F - 31F - - - - - - 0 mhos 0 - None None - -
02/09/2016 14:11 Dry 59.4F - 31F - - - - - - 0 mhos 0 - None None - -
02/09/2016 14:01 Dry 61.2F - 31F - - - - - - 0 mhos 0 - None None - -
02/09/2016 14:01 Dry 61.2F - 31F - - - - - - 0 mhos 0 - None None - -
02/09/2016 13:51 Dry 61.3F - 31F - - - - - - 0 mhos 0 - None None - -
02/09/2016 13:46 Dry 61.2F - 31F - - - - - - 0 mhos 0 - None None - -
02/09/2016 13:41 Dry 61.0F - 31F - - - - - - 0 mhos 0 - None None - -
02/09/2016 13:31 Dry 60.4F - 31F - - - - - - 0 mhos 0 - None None - -
02/09/2016 13:31 Dry 60.4F - 31F - - - - - - 0 mhos 0 - None None - -
02/09/2016 13:20 Dry 60.6F - 31F - - - - - - 0 mhos 0 - None None - -
02/09/2016 13:16 Dry 59.9F - 31F - - - - - - 0 mhos 0 - None None - -
02/09/2016 13:10 Dry 59.4F - 31F - - - - - - 0 mhos 0 - None None - -
02/09/2016 13:01 Dry 58.6F - 31F - - - - - - 0 mhos 0 - None None - -
Date/Time
(MST)
Sf
Temp Chem Water Layer Surface Precipitation
Sfc Pvt Sub Frz Factor Pct Dpth DpthThk IcePct Cond Salin FI Type Intens Accum Rate
02/09/2016 13:00 Dry 58.6F - 31F - - - - - - 0 mhos 0 - None None - -
02/09/2016 12:50 Dry 57.2F - 31F - - - - - - 0 mhos 0 - None None - -
02/09/2016 12:46 Dry 55.9F - 31F - - - - - - 0 mhos 0 - None None - -
02/09/2016 12:40 Dry 54.9F - 31F - - - - - - 0 mhos 0 - None None - -
02/09/2016 12:31 Dry 54.5F - 31F - - - - - - 0 mhos 0 - None None - -
02/09/2016 12:30 Dry 54.1F - 31F - - - - - - 0 mhos 0 - None None - -
02/09/2016 12:20 Dry 54.7F - 31F - - - - - - 0 mhos 0 - None None - -
02/09/2016 12:16 Dry 54.0F - 31F - - - - - - 0 mhos 0 - None None - -
02/09/2016 12:10 Dry 53.2F - 31F - - - - - - 0 mhos 1 - None None - -
02/09/2016 12:01 Dry 52.0F - 31F - - - - - - 0 mhos 1 - None None - -
02/09/2016 12:00 Dry 52.0F - 31F - - - - - - 0 mhos 1 - None None - -
02/09/2016 11:50 Dry 50.7F - 31F - - - - - - 0 mhos 2 - None None - -
02/09/2016 11:46 Dry 50.2F - 31F - - - - - - 0 mhos 3 - None None - -
02/09/2016 11:40 Dry 49.3F - 31F - - - - - - 0 mhos 7 - None None - -
02/09/2016 11:31 Dry 48.2F - 31F - - - - - - 0 mhos 20 - None None - -
Date/Time
(MST)
Sf
Temp Chem Water Layer Surface Precipitation
Sfc Pvt Sub Frz Factor Pct Dpth DpthThk IcePct Cond Salin FI Type Intens Accum Rate
02/09/2016 11:30 Dry 48.0F - 31F - - - - - - 0 mhos 21 - None None - -
02/09/2016 11:20 Dry 46.4F - 31F - - - - - - 0 mhos 35 - None None - -
02/09/2016 11:16 Dry 45.5F - 31F - - - - - - 0 mhos 42 - None None - -
02/09/2016 11:10 Dry 44.6F - 31F - - - - - - 1 mhos 55 - None None - -
02/09/2016 11:01 Dry 43.3F - 31F - - - - - - 1 mhos 70 - None None - -
02/09/2016 11:00 Dry 43.3F - 31F - - - - - - 1 mhos 71 - None None - -
02/09/2016 10:50 Dry 41.4F - 31F - - - - - - 1 mhos 84 - None None - -
02/09/2016 10:46 Dry 40.6F - 31F - - - - - - 1 mhos 89 - None None - -
02/09/2016 10:40 Wet 39.7F - 31F 32F 5 0% 0.00 in - 0% 1 mhos 95 - None None - -
02/09/2016 10:31 Wet 37.8F - 31F 32F 5 0% 0.00 in - 0% 1 mhos 104 - None None - -
02/09/2016 10:30 Wet 37.4F - 31F 32F 5 0% 0.00 in - 0% 1 mhos 104 - None None - -
02/09/2016 10:20 Wet 36.7F - 31F 32F 5 0% 0.00 in - 0% 1 mhos 111 - None None - -
02/09/2016 10:16 Wet 35.8F - 31F 32F 5 0% 0.00 in - 0% 1 mhos 114 - None None - -
02/09/2016 10:10 Wet 34.3F - 31F 32F 5 0% 0.00 in - 0% 1 mhos 119 - None None - -
02/09/2016 10:01 Wet 32.5F - 31F 32F 10 0% 0.00 in - 0% 1 mhos 119 - None None - -
Date/Time
(MST)
Sf
Temp Chem Water Layer Surface Precipitation
Sfc Pvt Sub Frz Factor Pct Dpth DpthThk IcePct Cond Salin FI Type Intens Accum Rate
02/09/2016 10:00 Wet 32.4F - 31F 32F 15 0% 0.00 in - 0% 1 mhos 120 - None None - -
02/09/2016 09:50 Chemically Wet 31.8F - 31F 32F 15 0% - - 14% 1 mhos 122 - None None - -
02/09/2016 09:46 Chemically Wet 31.3F - 31F 32F 15 0% - - 84% 1 mhos 123 - None None - -
02/09/2016 09:39 Ice Warning 30.6F - 31F 32F 20 0% - - 91% 1 mhos 123 - None None - -
02/09/2016 09:31 Ice Warning 29.7F - 31F 32F 25 0% - - 95% 1 mhos 125 - None None - -
02/09/2016 09:29 Ice Warning 29.5F - 31F 32F 25 0% - - 95% 1 mhos 124 - None None - -
02/09/2016 09:19 Ice Warning 28.8F - 31F 32F 25 0% - - 96% 1 mhos 124 - None None - -
02/09/2016 09:16 Ice Warning 28.4F - 31F 32F 25 0% - - 97% 1 mhos 125 - None None - -
02/09/2016 09:09 Ice Warning 28.0F - 31F 32F 20 0% - - 97% 1 mhos 124 - None None - -
02/09/2016 09:01 Ice Warning 27.5F - 31F 32F 25 0% - - 97% 1 mhos 126 - None None - -
02/09/2016 08:59 Ice Warning 27.3F - 31F 32F 25 0% - - 97% 1 mhos 125 - None None - -
02/09/2016 08:49 Ice Warning 26.8F - 31F 32F 20 0% - - 98% 1 mhos 126 - None None - -
02/09/2016 08:46 Ice Warning 26.4F - 31F 32F 20 0% - - 98% 1 mhos 126 - None None - -
02/09/2016 08:39 Ice Warning 26.1F - 31F 32F 20 0% - - 98% 1 mhos 127 - None None - -
02/09/2016 08:31 Ice Warning 25.7F - 31F 32F 25 0% - - 98% 1 mhos 128 - None None - -
Date/Time
(MST)
Sf
Temp Chem Water Layer Surface Precipitation
Sfc Pvt Sub Frz Factor Pct Dpth DpthThk IcePct Cond Salin FI Type Intens Accum Rate
02/09/2016 08:29 Ice Warning 25.5F - 31F 32F 25 0% - - 98% 1 mhos 128 - None None - -
02/09/2016 08:19 Ice Warning 24.6F - 31F 32F 40 0% - - 98% 1 mhos 128 - None None - -
02/09/2016 08:16 Ice Warning 24.3F - 31F 32F 35 0% - - 98% 1 mhos 129 - None None - -
02/09/2016 08:09 Ice Warning 24.6F - 31F 32F 50 0% - - 98% 1 mhos 127 - None None - -
02/09/2016 08:01 Ice Warning 24.6F - 31F 32F 45 0% - - 98% 1 mhos 121 - Yes - - -
02/09/2016 07:59 Ice Warning 24.6F - 31F 32F 40 0% - - 98% 1 mhos 120 - Yes - - -
02/09/2016 07:49 Ice Warning 24.6F - 31F 32F 40 0% - - 98% 1 mhos 116 - None None - -
02/09/2016 07:46 Ice Warning 24.8F - 31F 32F 45 0% - - 98% 1 mhos 114 - None None - -
02/09/2016 07:39 Ice Warning 24.8F - 31F 32F 35 0% - - 98% 1 mhos 111 - None None - -
02/09/2016 07:31 Ice Watch 25.0F - 31F - 25 - - - - 1 mhos 107 - None None - -
02/09/2016 07:29 Ice Watch 25.0F - 31F - 20 - - - - 1 mhos 106 - None None - -
02/09/2016 07:19 Ice Watch 24.6F - 31F - 20 - - - - 1 mhos 106 - None None - -
02/09/2016 07:16 Ice Watch 24.6F - 31F - 25 - - - - 1 mhos 105 - None None - -
02/09/2016 07:09 Ice Watch 24.4F - 31F - 25 - - - - 1 mhos 106 - None None - -
02/09/2016 07:01 Ice Watch 24.3F - 31F - 20 - - - - 1 mhos 105 - None None - -
Date/Time
(MST)
Sf
Temp Chem Water Layer Surface Precipitation
Sfc Pvt Sub Frz Factor Pct Dpth DpthThk IcePct Cond Salin FI Type Intens Accum Rate
02/09/2016 06:59 Ice Watch 23.9F - 31F - 20 - - - - 1 mhos 104 - None None - -
02/09/2016 06:49 Ice Watch 23.5F - 31F - 25 - - - - 1 mhos 103 - None None - -
02/09/2016 06:46 Ice Watch 23.5F - 31F - 20 - - - - 1 mhos 104 - None None - -
02/09/2016 06:39 Ice Watch 23.4F - 31F - 15 - - - - 1 mhos 103 - None None - -
02/09/2016 06:31 Ice Watch 23.2F - 31F - 15 - - - - 1 mhos 102 - None None - -
02/09/2016 06:29 Ice Watch 23.2F - 31F - 15 - - - - 1 mhos 102 - None None - -
02/09/2016 06:18 Ice Watch 23.2F - 31F - 15 - - - - 1 mhos 103 - None None - -
02/09/2016 06:16 Ice Watch 23.2F - 31F - 20 - - - - 1 mhos 102 - None None - -
02/09/2016 06:08 Ice Watch 23.2F - 31F - 15 - - - - 1 mhos 103 - None None - -
02/09/2016 06:01 Ice Watch 23.4F - 31F - 15 - - - - 1 mhos 102 - None None - -
02/09/2016 05:58 Ice Watch 23.4F - 31F - 15 - - - - 1 mhos 103 - None None - -
02/09/2016 05:48 Ice Watch 23.5F - 31F - 20 - - - - 1 mhos 103 - None None - -
02/09/2016 05:46 Ice Watch 23.5F - 31F - 15 - - - - 1 mhos 102 - None None - -
02/09/2016 05:38 Ice Watch 23.5F - 31F - 15 - - - - 1 mhos 103 - None None - -
02/09/2016 05:31 Ice Watch 23.5F - 31F - 20 - - - - 1 mhos 103 - None None - -
Date/Time
(MST)
Sf
Temp Chem Water Layer Surface Precipitation
Sfc Pvt Sub Frz Factor Pct Dpth DpthThk IcePct Cond Salin FI Type Intens Accum Rate
02/09/2016 05:28 Ice Watch 23.5F - 31F - 20 - - - - 1 mhos 102 - None None - -
02/09/2016 05:18 Ice Watch 23.5F - 31F - 15 - - - - 1 mhos 102 - None None - -
02/09/2016 05:16 Ice Watch 23.5F - 31F - 20 - - - - 1 mhos 103 - None None - -
02/09/2016 05:08 Ice Watch 23.7F - 31F - 20 - - - - 1 mhos 103 - None None - -
02/09/2016 05:01 Ice Watch 23.7F - 31F - 20 - - - - 1 mhos 102 - None None - -
02/09/2016 04:58 Ice Watch 23.5F - 31F - 20 - - - - 1 mhos 102 - None None - -
02/09/2016 04:48 Ice Watch 23.7F - 31F - 20 - - - - 1 mhos 101 - None None - -
02/09/2016 04:46 Ice Watch 23.7F - 31F - 20 - - - - 1 mhos 102 - None None - -
02/09/2016 04:38 Ice Watch 23.7F - 31F - 20 - - - - 1 mhos 101 - None None - -
02/09/2016 04:31 Ice Watch 23.7F - 31F - 20 - - - - 1 mhos 100 - None None - -
02/09/2016 04:28 Ice Watch 23.7F - 31F - 20 - - - - 1 mhos 100 - None None - -
02/09/2016 04:18 Ice Watch 23.7F - 31F - 15 - - - - 1 mhos 100 - None None - -
02/09/2016 04:16 Ice Watch 23.7F - 31F - 15 - - - - 1 mhos 101 - None None - -
02/09/2016 04:08 Ice Watch 23.9F - 31F - 20 - - - - 1 mhos 101 - None None - -
02/09/2016 04:01 Ice Watch 24.1F - 31F - 20 - - - - 1 mhos 101 - None None - -
Date/Time
(MST)
Sf
Temp Chem Water Layer Surface Precipitation
Sfc Pvt Sub Frz Factor Pct Dpth DpthThk IcePct Cond Salin FI Type Intens Accum Rate
02/09/2016 03:58 Ice Watch 24.1F - 31F - 20 - - - - 1 mhos 100 - None None - -
02/09/2016 03:48 Ice Watch 24.1F - 31F - 20 - - - - 1 mhos 100 - None None - -
02/09/2016 03:46 Ice Watch 24.1F - 31F - 20 - - - - 1 mhos 100 - None None - -
02/09/2016 03:37 Ice Watch 24.3F - 31F - 25 - - - - 1 mhos 100 - None None - -
02/09/2016 03:31 Ice Watch 24.3F - 31F - 25 - - - - 1 mhos 99 - None None - -
02/09/2016 03:27 Ice Watch 24.3F - 31F - 20 - - - - 1 mhos 99 - None None - -
02/09/2016 03:17 Ice Watch 24.3F - 31F - 25 - - - - 1 mhos 98 - None None - -
02/09/2016 03:16 Ice Watch 24.4F - 31F - 20 - - - - 1 mhos 98 - None None - -
02/09/2016 03:07 Ice Watch 24.4F - 31F - 25 - - - - 1 mhos 97 - None None - -
02/09/2016 03:01 Ice Watch 24.3F - 31F - 20 - - - - 1 mhos 96 - None None - -
02/09/2016 02:57 Ice Watch 24.4F - 31F - 20 - - - - 1 mhos 96 - None None - -
02/09/2016 02:47 Ice Watch 24.6F - 31F - 20 - - - - 1 mhos 95 - None None - -
02/09/2016 02:46 Ice Watch 24.4F - 31F - 20 - - - - 1 mhos 95 - None None - -
02/09/2016 02:37 Ice Watch 24.4F - 31F - 20 - - - - 1 mhos 95 - None None - -
02/09/2016 02:31 Ice Watch 24.4F - 31F - 20 - - - - 1 mhos 95 - None None - -
Date/Time
(MST)
Sf
Temp Chem Water Layer Surface Precipitation
Sfc Pvt Sub Frz Factor Pct Dpth DpthThk IcePct Cond Salin FI Type Intens Accum Rate
02/09/2016 02:27 Ice Watch 24.6F - 31F - 25 - - - - 1 mhos 95 - None None - -
02/09/2016 02:17 Ice Watch 24.6F - 31F - 25 - - - - 1 mhos 93 - None None - -
02/09/2016 02:16 Ice Watch 24.6F - 31F - 25 - - - - 1 mhos 92 - None None - -
02/09/2016 02:07 Ice Watch 24.6F - 31F - 25 - - - - 1 mhos 92 - None None - -
02/09/2016 02:01 Ice Watch 24.6F - 31F - 25 - - - - 1 mhos 90 - None None - -
02/09/2016 01:57 Ice Watch 24.6F - 31F - 25 - - - - 1 mhos 89 - None None - -
02/09/2016 01:47 Ice Watch 24.6F - 31F - 30 - - - - 1 mhos 88 - None None - -
02/09/2016 01:46 Ice Watch 24.8F - 31F - 25 - - - - 1 mhos 87 - None None - -
02/09/2016 01:37 Ice Watch 24.8F - 31F - 25 - - - - 1 mhos 85 - None None - -
02/09/2016 01:31 Ice Watch 24.8F - 31F - 30 - - - - 1 mhos 84 - None None - -
02/09/2016 01:27 Ice Watch 24.8F - 31F - 25 - - - - 1 mhos 84 - None None - -
02/09/2016 01:17 Ice Watch 24.8F - 31F - 25 - - - - 1 mhos 82 - None None - -
02/09/2016 01:16 Ice Watch 24.8F - 31F - 20 - - - - 1 mhos 82 - None None - -
02/09/2016 01:07 Ice Watch 24.8F - 31F - 25 - - - - 1 mhos 80 - None None - -
02/09/2016 01:01 Ice Watch 24.8F - 31F - 25 - - - - 1 mhos 80 - None None - -
Date/Time
(MST)
Sf
Temp Chem Water Layer Surface Precipitation
Sfc Pvt Sub Frz Factor Pct Dpth DpthThk IcePct Cond Salin FI Type Intens Accum Rate
02/09/2016 00:57 Ice Watch 24.8F - 31F - 25 - - - - 1 mhos 80 - None None - -
02/09/2016 00:47 Ice Watch 25.0F - 31F - 25 - - - - 1 mhos 78 - None None - -
02/09/2016 00:46 Ice Watch 25.0F - 31F - 25 - - - - 1 mhos 78 - None None - -
02/09/2016 00:37 Ice Watch 25.2F - 31F - 25 - - - - 1 mhos 76 - None None - -
02/09/2016 00:31 Ice Watch 25.2F - 31F - 25 - - - - 1 mhos 75 - None None - -
02/09/2016 00:27 Ice Watch 25.2F - 31F - 25 - - - - 1 mhos 75 - None None - -
02/09/2016 00:17 Ice Watch 25.3F - 31F - 25 - - - - 1 mhos 72 - None None - -
02/09/2016 00:16 Ice Watch 25.3F - 31F - 25 - - - - 1 mhos 72 - None None - -
02/09/2016 00:07 Ice Watch 25.3F - 31F - 25 - - - - 1 mhos 70 - None None - -
02/09/2016 00:01 Ice Watch 25.5F - 31F - 25 - - - - 1 mhos 69 - None None - -
02/08/2016 23:57 Ice Watch 25.7F - 31F - 25 - - - - 1 mhos 68 - None None - -
02/08/2016 23:47 Ice Watch 25.7F - 31F - 25 - - - - 1 mhos 65 - None None - -
02/08/2016 23:46 Ice Watch 25.7F - 31F - 25 - - - - 1 mhos 65 - None None - -
02/08/2016 23:36 Ice Watch 25.9F - 32F - 25 - - - - 1 mhos 63 - None None - -
02/08/2016 23:31 Ice Watch 26.1F - 31F - 25 - - - - 1 mhos 61 - None None - -
Date/Time
(MST)
Sf
Temp Chem Water Layer Surface Precipitation
Sfc Pvt Sub Frz Factor Pct Dpth DpthThk IcePct Cond Salin FI Type Intens Accum Rate
02/08/2016 23:26 Ice Watch 26.2F - 31F - 25 - - - - 1 mhos 60 - None None - -
02/08/2016 23:16 Ice Watch 26.1F - 31F - 25 - - - - 0 mhos 57 - None None - -
02/08/2016 23:16 Ice Watch 26.1F - 32F - 25 - - - - 0 mhos 57 - None None - -
02/08/2016 23:06 Ice Watch 26.4F - 32F - 25 - - - - 0 mhos 54 - None None - -
02/08/2016 23:01 Ice Watch 26.6F - 32F - 25 - - - - 0 mhos 52 - None None - -
02/08/2016 22:56 Ice Watch 26.6F - 32F - 20 - - - - 0 mhos 51 - None None - -
02/08/2016 22:46 Ice Watch 26.8F - 32F - 25 - - - - 0 mhos 48 - None None - -
02/08/2016 22:46 Ice Watch 27.0F - 32F - 25 - - - - 0 mhos 47 - None None - -
02/08/2016 22:36 Ice Watch 27.0F - 32F - 25 - - - - 0 mhos 45 - None None - -
02/08/2016 22:31 Ice Watch 27.0F - 32F - 25 - - - - 0 mhos 43 - None None - -
02/08/2016 22:26 Ice Watch 27.1F - 32F - 25 - - - - 0 mhos 41 - None None - -
02/08/2016 22:16 Ice Watch 27.3F - 32F - 20 - - - - 0 mhos 38 - None None - -
02/08/2016 22:16 Ice Watch 27.3F - 32F - 20 - - - - 0 mhos 37 - None None - -
02/08/2016 22:06 Ice Watch 27.5F - 32F - 25 - - - - 0 mhos 35 - None None - -
02/08/2016 22:01 Ice Watch 27.9F - 32F - 25 - - - - 0 mhos 33 - None None - -
Date/Time
(MST)
Sf
Temp Chem Water Layer Surface Precipitation
Sfc Pvt Sub Frz Factor Pct Dpth DpthThk IcePct Cond Salin FI Type Intens Accum Rate
02/08/2016 21:56 Ice Watch 27.9F - 32F - 20 - - - - 0 mhos 31 - None None - -
02/08/2016 21:46 Ice Watch 28.0F - 32F - 20 - - - - 0 mhos 27 - None None - -
02/08/2016 21:46 Ice Watch 28.0F - 32F - 20 - - - - 0 mhos 27 - None None - -
02/08/2016 21:36 Ice Watch 28.2F - 32F - 20 - - - - 0 mhos 24 - None None - -
02/08/2016 21:31 Ice Watch 28.4F - 32F - 20 - - - - 0 mhos 22 - None None - -
02/08/2016 21:26 Ice Watch 28.4F - 32F - 20 - - - - 0 mhos 21 - None None - -
02/08/2016 21:16 Ice Watch 28.8F - 32F - 20 - - - - 0 mhos 19 - None None - -
02/08/2016 21:16 Ice Watch 28.8F - 32F - 20 - - - - 0 mhos 19 - None None - -
02/08/2016 21:06 Ice Watch 28.9F - 32F - 20 - - - - 0 mhos 16 - None None - -
02/08/2016 21:01 Ice Watch 29.1F - 32F - 20 - - - - 0 mhos 15 - None None - -
02/08/2016 20:56 Ice Watch 29.1F - 32F - 20 - - - - 0 mhos 14 - None None - -
02/08/2016 20:46 Ice Watch 29.5F - 32F - 20 - - - - 0 mhos 13 - None None - -
02/08/2016 20:46 Ice Watch 29.5F - 32F - 20 - - - - 0 mhos 13 - None None - -
02/08/2016 20:36 Ice Watch 29.8F - 32F - 20 - - - - 0 mhos 12 - None None - -
02/08/2016 20:31 Ice Watch 30.0F - 32F - 20 - - - - 0 mhos 11 - None None - -
Date/Time
(MST)
Sf
Temp Chem Water Layer Surface Precipitation
Sfc Pvt Sub Frz Factor Pct Dpth DpthThk IcePct Cond Salin FI Type Intens Accum Rate
02/08/2016 20:26 Ice Watch 30.0F - 32F - 20 - - - - 0 mhos 9 - None None - -
02/08/2016 20:16 Ice Watch 30.4F - 32F - 20 - - - - 0 mhos 9 - None None - -
02/08/2016 20:16 Ice Watch 30.4F - 32F - 20 - - - - 0 mhos 9 - None None - -
02/08/2016 20:05 Ice Watch 30.7F - 32F - 15 - - - - 0 mhos 8 - None None - -
02/08/2016 20:01 Ice Watch 31.1F - 31F - 15 - - - - 0 mhos 8 - None None - -
02/08/2016 19:55 Ice Watch 31.3F - 32F - 15 - - - - 0 mhos 7 - None None - -
02/08/2016 19:46 Ice Watch 31.5F - 31F - 15 - - - - 0 mhos 7 - None None - -
02/08/2016 19:45 Ice Watch 31.5F - 31F - 15 - - - - 0 mhos 7 - None None - -
02/08/2016 19:35 Ice Watch 31.8F - 31F - 15 - - - - 0 mhos 6 - None None - -
02/08/2016 19:31 Trace Moisture 32.2F - 31F - 15 - - - - 0 mhos 6 - None None - -
02/08/2016 19:25 Trace Moisture 32.4F - 31F - 15 - - - - 0 mhos 5 - None None - -
02/08/2016 19:16 Trace Moisture 32.7F - 31F - 10 - - - - 0 mhos 5 - None None - -
02/08/2016 19:15 Trace Moisture 32.7F - 31F - 10 - - - - 0 mhos 5 - None None - -
02/08/2016 19:05 Trace Moisture 33.1F - 31F - 5 - - - - 0 mhos 4 - None None - -
02/08/2016 19:01 Trace Moisture 33.4F - 31F - 5 - - - - 0 mhos 4 - None None - -
Date/Time
(MST)
Sf
Temp Chem Water Layer Surface Precipitation
Sfc Pvt Sub Frz Factor Pct Dpth DpthThk IcePct Cond Salin FI Type Intens Accum Rate
02/08/2016 18:55 Trace Moisture 33.8F - 31F - 5 - - - - 0 mhos 4 - None None - -
02/08/2016 18:46 Trace Moisture 34.2F - 31F - 5 - - - - 0 mhos 3 - None None - -
02/08/2016 18:45 Trace Moisture 34.2F - 31F - 5 - - - - 0 mhos 3 - None None - -
02/08/2016 18:35 Trace Moisture 34.9F - 31F - 5 - - - - 0 mhos 3 - None None - -
02/08/2016 18:31 Trace Moisture 34.9F - 31F - 5 - - - - 0 mhos 3 - None None - -
02/08/2016 18:25 Trace Moisture 35.2F - 31F - 5 - - - - 0 mhos 2 - None None - -
02/08/2016 18:16 Trace Moisture 35.8F - 31F - 5 - - - - 0 mhos 2 - None None - -
02/08/2016 18:15 Trace Moisture 36.0F - 31F - 5 - - - - 0 mhos 2 - None None - -
02/08/2016 18:05 Trace Moisture 36.3F - 31F - 5 - - - - 0 mhos 2 - None None - -
02/08/2016 18:01 Trace Moisture 36.7F - 31F - 5 - - - - 0 mhos 2 - None None - -
02/08/2016 17:55 Trace Moisture 37.2F - 31F - 5 - - - - 0 mhos 1 - None None - -
02/08/2016 17:46 Trace Moisture 37.9F - 31F - 5 - - - - 0 mhos 1 - None None - -
02/08/2016 17:45 Trace Moisture 37.9F - 31F - 5 - - - - 0 mhos 1 - None None - -
Change End Date:

Copyright © 1998-2015 Vaisala, Inc.
All Rights Reserved
Send comments about the data to:
SCAN Web ® is a registered trademark of Vaisala, Inc.
SCAN Web Version 6.0